Skip Page Navigation
NASA JPL Caltech
NASA Logo - Jet Propulsion Laboratory + View the NASA Portal
+ Near-Earth Object (NEO) Program
Search JPL
JPL Home Earth Solar System Stars & Galaxies Technology
JPL Solar System Dynamics
BODIES ORBITS EPHEMERIDES TOOLS PHYSICAL DATA DISCOVERY FAQ SITE MAP
JPL Small-Body Database Browser
Search: [ help ]  
35109 (1991 XM)
Classification: Main-belt Asteroid          SPK-ID: 2035109
Ephemeris | Orbit Diagram | Orbital Elements | Physical Parameters | Discovery Circumstances | Close-Approach Data ]

[ show orbit diagram ]
Orbital Elements at Epoch 2457400.5 (2016-Jan-13.0) TDB
Reference: JPL 13 (heliocentric ecliptic J2000)
 Element Value Uncertainty (1-sigma)   Units 
e .1500325458250361 7.3194e-08  
a 2.755505871585707 2.3655e-08 au
q 2.342090310635869 2.0361e-07 au
i 14.25117195642141 7.4689e-06 deg
node 243.5789040679313 2.9572e-05 deg
peri 82.63706141127194 3.8674e-05 deg
M 183.7764030102277 2.4688e-05 deg
tp 2458218.328044164424
(2018-Apr-09.82804416)
0.00011813 JED
period 1670.707560896515
4.57
2.1514e-05
5.89e-08
d
yr
n .2154775667662755 2.7747e-09 deg/d
Q 3.168921432535547 2.7204e-08 au
  Orbit Determination Parameters
   # obs. used (total)      802  
   data-arc span      8775 days (24.02 yr)  
   first obs. used      1991-12-04  
   last obs. used      2015-12-13  
   planetary ephem.      DE431  
   SB-pert. ephem.      SB431-BIG16  
   condition code      0  
   fit RMS      .50349  
   data source      ORB  
   producer      Otto Matic  
   solution date      2016-Jan-04 14:27:03  

Additional Information
 Earth MOID = 1.38007 au 
 Jupiter MOID = 2.22303 au 
 T_jup = 3.283 
[ show covariance matrix ]

Ephemeris | Orbit Diagram | Orbital Elements | Physical Parameters | Discovery Circumstances | Close-Approach Data ]

Physical Parameter Table
Parameter Symbol Value Units Sigma Reference Notes
absolute magnitude H 13.0 mag n/a MPO267826  

35109 (1991 XM)          Discovered 1991-Dec-04 by Ueda, S., Kaneda, H. at Kushiro
Reference: 20020227/Numbers.arcLast Updated: 2004-04-19

[ show close-approach data ]
Alternate Designations
 1991 XM = 1999 LJ14 
Ephemeris | Orbit Diagram | Orbital Elements | Physical Parameters | Discovery Circumstances | Close-Approach Data ]
ABOUT SSD CREDITS/AWARDS PRIVACY/COPYRIGHT GLOSSARY LINKS
FirstGov 2016-Feb-09 15:52 UT
(server date/time)  
NASA Home Page
Site Manager:   Ryan S. Park
Webmaster  Alan B. Chamberlin